Weather History for KORG - June, 2014

Change the Weather History Date:

Wednesday, June 18, 2014

  Actual Average Record
Temperature  
Mean Temperature 84 °F -  
Max Temperature 89 °F 88 °F 93 °F (1967)
Min Temperature 79 °F 71 °F 63 °F (1969)
Cooling Degree Days 19    
Growing Degree Days 34 (Base 50)    
Moisture  
Dew Point 73 °F    
Average Humidity 72    
Maximum Humidity 85    
Minimum Humidity 56    
Precipitation  
Precipitation 0.00 in - - ()
Sea Level Pressure  
Sea Level Pressure 30.05 in    
Wind  
Wind Speed 8 mph (SSE)    
Max Wind Speed 15 mph    
Max Gust Speed 20 mph    
Visibility 10 miles    
Events      
Averages and records for this station are not official NWS values.
T = Trace of Precipitation, MM = Missing Value Source: NWS Daily Summary

Daily Weather History Graph

Daily Weather History Graph

Search for Another Location

Airport or City:

Trip Planner

Search our weather history database for the weather conditions in past years. The results will help you decide how hot, cold, wet, or windy it might be!

Date:

Astronomy

Jun. 18, 2014 Rise Set
Actual Time 6:13 AM CDT 8:18 PM CDT
Civil Twilight 5:46 AM CDT 8:46 PM CDT
Nautical Twilight 5:13 AM CDT 9:19 PM CDT
Astronomical Twilight 4:37 AM CDT 9:55 PM CDT
Moon 12:10 AM CDT (6/18) 12:13 PM CDT (6/18)
Length of Visible Light 14h 59m
Length of Day
14h 04m
Waning Gibbous, 62% of the Moon is Illuminated
Jun 18
Waning Gibbous
Jun 19
Last Quarter
Jun 27
New
Jul 5
First Quarter
Jul 12
Full

Hourly Weather History & Observations

Time (CDT) Temp. Heat Index Dew Point Humidity Pressure Visibility Wind Dir Wind Speed Gust Speed Precip Events Conditions
12:15 AM 79.7 °F - 74.7 °F 84% 30.06 in 10.0 mi SSE 6.9 mph - N/A   Scattered Clouds
12:35 AM 79.9 °F - 74.5 °F 83% 30.06 in 10.0 mi SE 6.9 mph - N/A   Scattered Clouds
1:15 AM 79.7 °F - 74.7 °F 84% 30.06 in 10.0 mi SSE 5.8 mph - N/A   Clear
1:35 AM 79.7 °F - 74.5 °F 84% 30.05 in 10.0 mi SSE 5.8 mph - N/A   Clear
1:55 AM 79.7 °F - 74.7 °F 84% 30.05 in 10.0 mi SSE 8.1 mph - N/A   Scattered Clouds
2:15 AM 79.7 °F - 74.3 °F 83% 30.05 in 10.0 mi SSE 8.1 mph - N/A   Clear
2:35 AM 79.3 °F - 74.5 °F 85% 30.04 in 10.0 mi SSE 8.1 mph - N/A   Clear
2:55 AM 79.7 °F - 73.8 °F 82% 30.04 in 10.0 mi SSE 6.9 mph - N/A   Clear
3:15 AM 79.7 °F - 74.3 °F 83% 30.04 in 10.0 mi South 9.2 mph - N/A   Clear
3:35 AM 80.2 °F 84.7 °F 73.6 °F 80% 30.04 in 10.0 mi South 6.9 mph - N/A   Clear
3:55 AM 80.2 °F 84.7 °F 73.6 °F 80% 30.04 in 10.0 mi South 8.1 mph - N/A   Clear
4:15 AM 80.6 °F 85.7 °F 74.1 °F 81% 30.04 in 10.0 mi South 6.9 mph - N/A   Scattered Clouds
4:35 AM 80.1 °F 84.6 °F 74.3 °F 82% 30.04 in 10.0 mi South 6.9 mph - N/A   Scattered Clouds
4:55 AM 80.1 °F 84.6 °F 74.3 °F 82% 30.04 in 10.0 mi South 8.1 mph - N/A   Scattered Clouds
5:15 AM 80.2 °F 85.0 °F 74.3 °F 82% 30.04 in 10.0 mi South 6.9 mph - N/A   Scattered Clouds
5:35 AM 80.1 °F 84.8 °F 74.5 °F 83% 30.04 in 10.0 mi South 6.9 mph - N/A   Scattered Clouds
5:55 AM 80.6 °F 85.9 °F 74.5 °F 82% 30.05 in 10.0 mi South 8.1 mph - N/A   Scattered Clouds
6:15 AM 80.6 °F 85.9 °F 74.7 °F 82% 30.05 in 10.0 mi SSE 5.8 mph - N/A   Mostly Cloudy
6:35 AM 80.1 °F 84.9 °F 74.8 °F 84% 30.05 in 10.0 mi SSE 4.6 mph - N/A   Overcast
6:55 AM 80.2 °F 85.4 °F 74.8 °F 84% 30.05 in 10.0 mi SE 3.5 mph - N/A   Mostly Cloudy
7:15 AM 80.2 °F 85.2 °F 74.5 °F 83% 30.05 in 10.0 mi SSE 5.8 mph - N/A   Mostly Cloudy
7:35 AM 81.1 °F 86.8 °F 74.3 °F 80% 30.05 in 10.0 mi SSE 4.6 mph - N/A   Scattered Clouds
7:55 AM 81.9 °F 87.5 °F 73.8 °F 76% 30.06 in 10.0 mi SSE 6.9 mph - N/A   Clear
8:15 AM 82.8 °F 88.7 °F 73.4 °F 73% 30.06 in 10.0 mi South 10.4 mph - N/A   Clear
8:35 AM 83.3 °F 89.3 °F 72.9 °F 71% 30.07 in 10.0 mi SSE 10.4 mph - N/A   Clear
9:15 AM 83.8 °F 89.2 °F 71.8 °F 67% 30.08 in 10.0 mi SSE 9.2 mph - N/A   Clear
9:35 AM 84.9 °F 90.7 °F 71.8 °F 65% 30.08 in 10.0 mi South 12.7 mph 16.1 mph N/A   Scattered Clouds
9:55 AM 85.1 °F 91.5 °F 72.7 °F 66% 30.08 in 10.0 mi SSE 9.2 mph - N/A   Scattered Clouds
10:15 AM 85.8 °F 91.8 °F 72.0 °F 63% 30.08 in 10.0 mi SSE 9.2 mph - N/A   Scattered Clouds
10:35 AM 85.8 °F 92.2 °F 72.3 °F 64% 30.08 in 10.0 mi South 9.2 mph - N/A   Scattered Clouds
10:55 AM 85.5 °F 91.8 °F 72.3 °F 65% 30.08 in 10.0 mi South 9.2 mph - N/A   Clear
11:15 AM 86.5 °F 92.9 °F 72.3 °F 62% 30.09 in 10.0 mi South 9.2 mph - N/A   Clear
11:35 AM 86.4 °F 92.6 °F 72.0 °F 62% 30.09 in 10.0 mi SSE 11.5 mph 18.4 mph N/A   Scattered Clouds
11:55 AM 86.0 °F 91.5 °F 71.2 °F 61% 30.09 in 10.0 mi SSE 10.4 mph 16.1 mph N/A   Scattered Clouds
12:15 PM 87.4 °F 93.5 °F 71.4 °F 59% 30.08 in 10.0 mi South 9.2 mph - N/A   Scattered Clouds
12:35 PM 87.8 °F 93.4 °F 70.7 °F 57% 30.08 in 10.0 mi South 12.7 mph - N/A   Clear
1:15 PM 87.3 °F 93.2 °F 71.2 °F 59% 30.08 in 10.0 mi South 12.7 mph 18.4 mph N/A   Scattered Clouds
1:35 PM 87.8 °F 94.3 °F 72.0 °F 59% 30.08 in 10.0 mi South 11.5 mph - N/A   Scattered Clouds
1:55 PM 88.0 °F 94.7 °F 72.1 °F 59% 30.08 in 10.0 mi South 12.7 mph - N/A   Scattered Clouds
2:35 PM 88.7 °F 95.2 °F 71.6 °F 57% 30.07 in 10.0 mi South 13.8 mph 17.3 mph N/A   Scattered Clouds
2:55 PM 88.2 °F 94.6 °F 71.6 °F 58% 30.06 in 10.0 mi South 15.0 mph 19.6 mph N/A   Scattered Clouds
3:35 PM 88.7 °F 94.8 °F 71.1 °F 56% 30.05 in 10.0 mi SSE 11.5 mph 17.3 mph N/A   Clear
3:55 PM 89.4 °F 96.8 °F 72.1 °F 57% 30.05 in 10.0 mi SSE 13.8 mph 17.3 mph N/A   Scattered Clouds
4:15 PM 88.3 °F 94.5 °F 71.6 °F 57% 30.04 in 10.0 mi South 11.5 mph 17.3 mph N/A   Mostly Cloudy
4:35 PM 88.9 °F 95.6 °F 72.0 °F 57% 30.04 in 10.0 mi South 11.5 mph 16.1 mph N/A   Mostly Cloudy
4:55 PM 88.2 °F 95.0 °F 72.3 °F 59% 30.04 in 10.0 mi SSE 12.7 mph 17.3 mph N/A   Mostly Cloudy
5:15 PM 86.9 °F 92.5 °F 71.1 °F 59% 30.05 in 10.0 mi SSE 9.2 mph - N/A   Scattered Clouds
5:35 PM 87.1 °F 93.6 °F 72.0 °F 61% 30.04 in 10.0 mi South 10.4 mph - N/A   Mostly Cloudy
5:55 PM 86.0 °F 91.8 °F 71.8 °F 62% 30.04 in 10.0 mi SSE 9.2 mph - N/A   Scattered Clouds
6:15 PM 85.3 °F 91.1 °F 72.0 °F 64% 30.03 in 10.0 mi SE 9.2 mph - N/A   Scattered Clouds
6:35 PM 85.1 °F 91.1 °F 72.1 °F 65% 30.03 in 10.0 mi SE 10.4 mph - N/A   Clear
6:55 PM 84.4 °F 90.3 °F 72.3 °F 67% 30.02 in 10.0 mi SE 9.2 mph - N/A   Clear
7:15 PM 83.8 °F 89.8 °F 72.5 °F 69% 30.02 in 10.0 mi SSE 9.2 mph - N/A   Clear
7:35 PM 83.3 °F 89.3 °F 73.0 °F 71% 30.02 in 10.0 mi SSE 10.4 mph - N/A   Scattered Clouds
7:55 PM 82.9 °F 88.5 °F 72.9 °F 71% 30.02 in 10.0 mi SE 6.9 mph - N/A   Scattered Clouds
8:15 PM 82.4 °F 88.2 °F 73.4 °F 74% 30.03 in 10.0 mi SSE 8.1 mph - N/A   Clear
8:35 PM 81.9 °F 87.3 °F 73.2 °F 75% 30.03 in 10.0 mi SSE 6.9 mph - N/A   Scattered Clouds
8:55 PM 81.5 °F 86.7 °F 73.4 °F 76% 30.03 in 10.0 mi SE 6.9 mph - N/A   Clear
9:15 PM 81.0 °F 86.0 °F 73.4 °F 78% 30.03 in 10.0 mi SSE 9.2 mph - N/A   Clear
9:35 PM 80.6 °F 85.4 °F 73.4 °F 79% 30.03 in 10.0 mi SE 5.8 mph - N/A   Clear
9:55 PM 80.2 °F 84.7 °F 73.6 °F 80% 30.03 in 10.0 mi SE 4.6 mph - N/A   Scattered Clouds
10:15 PM 80.1 °F 84.5 °F 73.6 °F 81% 30.04 in 10.0 mi SE 4.6 mph - N/A   Clear
10:35 PM 80.6 °F 85.5 °F 73.8 °F 80% 30.04 in 10.0 mi SE 6.9 mph - N/A   Clear
10:55 PM 80.6 °F 85.7 °F 74.3 °F 81% 30.04 in 10.0 mi SE 4.6 mph - N/A   Scattered Clouds
11:15 PM 80.1 °F 84.5 °F 73.6 °F 81% 30.04 in 10.0 mi SE 5.8 mph - N/A   Scattered Clouds
11:35 PM 79.5 °F - 73.8 °F 82% 30.05 in 10.0 mi SSE 4.6 mph - N/A   Clear
11:55 PM 79.3 °F - 73.9 °F 83% 30.06 in 10.0 mi SSE 5.8 mph - N/A   Clear